Regional Weather Roundup
Issued by NWS

Home | Current Version | Previous Version | Text Only | Print | Product List | Glossary On
Versions: 1 2 3 4 5 6 7 8 9 10 11 12 13 14 15 16 17 18 19 20 21 22 23 24 25 26 27 28 29 30 31 32 33 34 35 36 37 38 39 40 41 42 43 44 45 46 47 48 49 50
000
ASUS42 KFFC 291903
RWRGA
WEATHER ROUNDUP FOR GEORGIA
NATIONAL WEATHER SERVICE PEACHTREE CITY GA
300 PM EDT TUE JUL 29 2014

NOTE: "FAIR" INDICATES FEW OR NO CLOUDS BELOW 12,000 FEET WITH NO
SIGNIFICANT WEATHER AND/OR OBSTRUCTIONS TO VISIBILITY.

* = USE WITH CAUTION. THE STATIONS MARKED WITH AN ASTERISK MAY NOT
REPORT WEATHER SUCH AS PRECIPITATION, FOG, OR THUNDER AND ARE NOT
QUALITY CONTROLLED BY NWS.

THE REMARK "TC" DENOTES TEMPERATURE READING IN DEGREES CELSIUS.

GAZ001>058-292000-
NORTH GEORGIA

CITY           SKY/WX    TMP DP  RH WIND       PRES   REMARKS
ATLANTA        MOSUNNY   79  58  48 NW12      30.00F
ATHENS         MOSUNNY   84  55  36 VRB6      29.97F
CHAMBLEE       PTSUNNY   79  56  45 N9        29.99F
PEACHTREE CITY MOSUNNY   82  56  40 NW14      30.01F
ROME           MOSUNNY   80  56  43 N12G17    30.01F
WEST ATLANTA   PTSUNNY   79  58  48 NW10      29.99F
GAINESVILLE    SUNNY     80  57  45 W8        30.01F
CARTERSVILLE   MOSUNNY   82  56  40 VRB5      30.01F


CITY           SKY/WX    TMP DP  RH WIND       PRES   REMARKS
DALTON*        MOSUNNY   77  59  53 N6        30.02F
MARIETTA       PTSUNNY   81  60  49 W8        30.00F
KENNESAW*      MOSUNNY   79  57  47 N9G16     30.02F
$$

GAZ059>098-102>109-292000-
CENTRAL GEORGIA

CITY           SKY/WX    TMP DP  RH WIND       PRES   REMARKS
AUGUSTA-BUSH   MOSUNNY   86  59  39 VRB6      29.92F
AUGUSTA-DANIEL PTSUNNY   88  55  32 VRB7G16   29.94F
COLUMBUS       MOSUNNY   86  55  34 NW12G21   29.98F
MACON          MOSUNNY   86  58  38 W8        29.96F
ROBINS AFB     MOSUNNY   85  59  40 N10       29.95F


CITY           SKY/WX    TMP DP  RH WIND       PRES   REMARKS
LAGRANGE*      PTSUNNY   84  61  46 N9        30.01S
SYLVANIA*      MOSUNNY   85  67  54 N5        29.93F
MILLEDGEVILLE* MOSUNNY   77  50  38 W6        29.95F
$$

GAZ099>101-110>166-292000-
SOUTH GEORGIA

CITY           SKY/WX    TMP DP  RH WIND       PRES   REMARKS
SAVANNAH       MOSUNNY   88  62  41 CALM      29.90
VALDOSTA       MOSUNNY   94  61  33 VRB7      29.94F HX  94
ALMA           MOSUNNY   91  57  31 VRB6      29.92F
ST SIMONS      PTSUNNY   91  67  44 VRB7      29.89F HX  94
FT STEWART     MOSUNNY   90  64  41 NW8       29.90F HX  91
ALBANY         MOSUNNY   89  58  34 NW10      29.97F
HUNTER AFB     SUNNY     90  65  43 VRB5      29.88F HX  92
MOODY AFB      MOSUNNY   90  75  60 W8        29.93F HX 100
BRUNSWICK      SUNNY     93  57  29 NW8       29.90F HX  92


CITY           SKY/WX    TMP DP  RH WIND       PRES   REMARKS
BAINBRIDGE*    MOSUNNY   91  66  43 NW5       29.96F HX  94
MOULTRIE*      MOSUNNY   88  61  40 NW7       29.96F
VIDALIA*         N/A     88  61  40 NW9       29.93F
WAYCROSS*      SUNNY     96  62  32 W6G17     29.91F HX  96
DOUGLAS*       SUNNY     91  55  29 W12       29.94F
$$


USA.gov is the U.S. government's official web portal to all federal, state and local government web resources and services.